Date,TemperatureHighF,TemperatureAvgF,TemperatureLowF,DewpointHighF,DewpointAvgF,DewpointLowF,HumidityHigh,HumidityAvg,HumidityLow,PressureMaxIn,PressureMinIn,WindSpeedMaxMPH,WindSpeedAvgMPH,GustSpeedMaxMPH,PrecipitationSumIn
2014-1-1,17,10,2,8,3,-3,81,72,54,30.37,30.12,15,4,36,0.00
2014-1-2,10,5,-2,4,-2,-8,78,75,72,30.36,29.92,7,2,18,0.00
2014-1-3,5,-2,-13,-5,-10,-21,76,66,50,30.40,29.84,12,3,30,0.00
2014-1-4,21,4,-15,5,-8,-23,69,58,40,30.47,30.20,20,4,38,0.00
2014-1-5,37,21,4,27,12,-1,96,70,48,30.31,29.92,17,3,33,0.03
2014-1-6,47,32,21,47,29,10,100,88,55,29.92,29.26,19,10,56,1.15
2014-1-7,21,6,0,10,-11,-18,63,46,31,30.10,29.43,26,14,55,0.00
2014-1-8,18,7,1,-1,-6,-14,72,54,35,30.43,30.10,17,6,39,0.00
2014-1-9,24,12,-1,4,0,-7,80,63,35,30.64,30.37,16,3,34,0.00
2014-1-10,31,18,-2,26,14,-8,91,83,75,30.57,30.24,7,1,21,0.00
2014-1-11,54,37,24,54,37,22,100,98,90,30.25,29.16,20,4,41,0.69
2014-1-12,49,37,32,46,27,20,92,66,52,29.89,29.20,19,11,48,0.01
2014-1-13,48,37,29,32,24,20,76,62,34,30.04,29.80,12,4,30,0.00
2014-1-14,42,39,36,40,36,31,100,88,67,29.80,29.63,14,3,35,0.46
2014-1-15,48,35,28,37,31,26,100,86,51,29.95,29.72,11,2,24,0.00
2014-1-16,32,31,28,32,29,27,100,93,85,29.91,29.83,3,0,11,0.01
2014-1-17,38,30,23,30,25,20,100,82,50,29.92,29.85,16,2,33,0.07
2014-1-18,33,27,21,28,24,18,96,88,74,29.90,29.65,4,0,16,0.01
2014-1-19,28,26,24,28,21,14,99,80,63,29.68,29.45,16,7,39,0.00
2014-1-20,33,26,7,27,18,-2,87,72,59,29.86,29.43,17,8,36,0.04
2014-1-21,7,3,-1,-2,-11,-14,66,53,39,30.07,29.86,9,2,24,0.00
2014-1-22,12,0,-8,-10,-14,-20,65,51,33,29.97,29.73,14,4,34,0.00
2014-1-23,13,2,-12,-7,-12,-19,72,54,35,30.13,29.93,16,4,28,0.00
2014-1-24,13,4,-7,-7,-11,-16,72,51,28,30.25,29.95,18,5,39,0.00
2014-1-25,23,17,10,17,6,-8,86,62,36,29.95,29.27,19,6,40,0.00
2014-1-26,18,11,4,14,-6,-19,85,48,26,29.82,29.27,19,8,45,0.00
2014-1-27,36,20,10,27,5,-11,85,55,26,29.94,29.43,22,8,51,0.00
2014-1-28,14,7,2,-4,-12,-17,65,42,25,30.27,29.94,20,7,45,0.00
2014-1-29,20,9,-5,-6,-11,-19,74,43,16,30.20,29.90,21,6,44,0.00
2014-1-30,27,13,-2,3,-2,-8,76,54,28,30.39,30.09,12,4,24,0.02
2014-1-31,34,25,14,17,10,1,73,54,32,30.15,29.96,17,7,44,0.00
2014-2-1,39,30,18,30,21,14,90,70,42,30.32,29.94,11,3,28,0.06
2014-2-2,41,36,32,33,30,27,89,80,67,30.03,29.81,17,4,40,0.10
2014-2-3,33,24,14,27,14,10,84,65,48,30.29,30.03,7,1,22,0.00
2014-2-4,32,20,7,15,9,2,85,65,35,30.44,30.27,11,2,24,0.00
2014-2-5,24,21,19,18,16,10,88,80,56,30.32,29.69,13,3,34,0.00
2014-2-6,24,12,1,15,4,-4,83,69,41,30.24,29.94,14,2,26,0.00
2014-2-7,27,14,-3,5,1,-9,79,57,36,30.21,30.10,16,6,36,0.00
2014-2-8,25,16,6,5,-1,-6,70,47,29,30.25,30.12,18,6,33,0.01
2014-2-9,26,19,12,16,8,3,86,65,41,30.16,29.90,9,1,21,0.03
2014-2-10,22,15,0,15,6,-6,87,69,43,30.19,29.87,16,3,36,0.00
2014-2-11,20,5,-6,4,-5,-13,79,62,38,30.45,30.19,11,3,27,0.00
2014-2-12,30,8,-9,3,-7,-16,74,53,21,30.57,30.39,11,2,21,0.02
2014-2-13,31,18,3,31,13,-6,100,80,58,30.39,29.12,16,5,38,0.00
2014-2-14,32,26,22,32,23,18,100,89,75,29.67,28.90,18,10,48,0.00
2014-2-15,31,26,20,24,20,16,90,80,66,29.81,29.57,18,3,40,0.01
2014-2-16,25,18,10,18,4,-7,81,53,35,29.99,29.58,20,9,46,0.00
2014-2-17,24,11,-4,-5,-9,-13,71,42,22,30.39,30.00,17,5,52,0.00
2014-2-18,20,12,-7,16,5,-14,88,75,39,30.35,29.99,12,2,29,0.00
2014-2-19,28,20,6,25,15,1,91,84,73,30.08,29.76,12,2,27,0.00
2014-2-20,44,33,24,31,24,16,94,74,33,30.17,29.81,16,5,33,0.40
2014-2-21,34,33,31,34,33,31,100,99,95,30.09,29.69,19,4,38,0.89
2014-2-22,46,37,28,32,21,9,100,58,27,29.89,29.76,23,9,49,0.26
2014-2-23,46,37,28,24,17,2,72,45,18,29.91,29.74,18,7,37,0.06
2014-2-24,33,24,15,15,5,-2,60,46,28,29.90,29.71,20,9,44,0.00
2014-2-25,22,15,9,6,0,-5,77,52,32,29.92,29.85,19,7,45,0.00
2014-2-26,22,11,2,8,-2,-11,81,56,29,29.89,29.74,26,8,51,0.00
2014-2-27,22,12,3,13,-4,-12,81,49,27,29.86,29.56,21,6,45,0.00
2014-2-28,20,6,-8,-4,-16,-22,67,39,15,30.43,29.86,21,5,58,0.00
2014-3-1,28,14,-7,11,-5,-15,72,47,20,30.43,30.02,14,4,33,0.00
2014-3-2,29,25,15,21,12,1,82,57,45,30.03,29.96,14,5,37,0.00
2014-3-3,20,10,-5,2,-6,-17,75,51,20,30.30,30.00,13,3,34,0.00
2014-3-4,26,10,-11,8,-9,-20,77,49,13,30.38,30.23,13,3,27,0.00
2014-3-5,22,15,4,12,6,-7,82,69,50,30.52,30.23,7,1,26,0.01
2014-3-6,36,12,-6,1,-12,-20,67,39,9,30.66,30.50,7,1,24,0.01
2014-3-7,43,19,-8,12,-1,-15,74,48,15,30.50,29.94,12,2,28,0.00
2014-3-8,49,28,12,24,15,8,84,61,30,29.94,29.71,14,4,34,0.00
2014-3-9,34,25,15,11,5,-4,74,45,20,29.93,29.83,17,4,34,0.00
2014-3-10,38,29,22,28,19,5,89,67,42,29.83,29.56,10,2,32,0.02
2014-3-11,52,37,27,34,26,20,93,70,29,29.69,29.45,21,4,40,0.07
2014-3-12,34,31,22,33,29,18,100,92,85,29.69,29.12,10,1,34,0.76
2014-3-13,22,12,7,18,5,-6,87,73,54,29.92,29.10,21,9,42,0.00
2014-3-14,32,18,-1,16,4,-8,78,55,39,30.12,29.82,17,6,40,0.00
2014-3-15,47,38,30,31,24,16,87,58,47,29.83,29.60,25,13,53,0.28
2014-3-16,30,21,8,17,1,-9,72,43,23,30.21,29.82,20,9,49,0.01
2014-3-17,28,13,3,-1,-9,-14,65,39,17,30.20,30.06,13,2,31,0.00
2014-3-18,42,19,-1,12,-2,-14,74,46,11,30.33,30.16,8,1,13,0.00
2014-3-19,37,26,12,27,16,7,91,67,39,30.36,29.94,16,5,43,0.00
2014-3-20,40,33,28,36,29,24,100,86,55,29.95,29.58,20,7,49,0.52
2014-3-21,37,32,28,24,18,13,79,57,40,29.97,29.66,18,10,43,0.10
2014-3-22,41,30,18,30,20,13,86,65,46,30.01,29.62,22,6,51,0.11
2014-3-23,33,28,11,22,9,-8,68,47,24,30.11,29.87,18,8,37,0.02
2014-3-24,28,16,5,0,-7,-12,68,38,18,30.15,30.04,17,5,51,0.00
2014-3-25,34,17,-2,8,0,-8,76,52,21,30.12,29.96,19,4,39,0.00
2014-3-26,28,22,15,12,4,-8,73,47,26,30.02,29.70,24,9,61,0.00
2014-3-27,38,25,12,17,-3,-10,55,31,13,30.29,30.02,16,7,36,0.00
2014-3-28,44,37,28,42,29,4,94,77,27,30.14,29.87,21,7,38,0.19
2014-3-29,50,42,35,41,34,30,93,77,47,30.22,29.97,17,6,34,0.19
2014-3-30,38,35,33,36,34,31,99,96,90,29.99,29.68,20,8,51,0.99
2014-3-31,37,32,28,31,26,22,93,78,65,30.06,29.74,20,8,56,0.14
2014-4-1,55,37,26,30,24,20,81,61,28,30.10,30.00,9,2,30,0.01
2014-4-2,55,39,27,31,27,22,88,64,30,30.08,29.97,17,3,29,0.00
2014-4-3,49,36,26,24,20,16,83,55,27,30.14,30.02,12,3,30,0.00
2014-4-4,48,35,24,30,23,18,91,66,31,30.14,29.87,15,5,39,0.20
2014-4-5,46,36,32,37,28,20,100,77,49,29.89,29.66,21,8,56,0.14
2014-4-6,51,38,29,25,18,7,71,47,18,30.14,29.88,19,8,40,0.00
2014-4-7,54,42,26,34,22,13,89,52,25,30.20,29.87,16,3,43,0.04
2014-4-8,50,42,36,47,39,30,100,91,71,29.87,29.26,21,7,45,0.38
2014-4-9,47,39,29,33,22,0,88,55,18,29.93,29.47,19,7,42,0.00
2014-4-10,61,39,24,27,17,10,75,46,15,30.08,29.89,21,7,46,0.00
2014-4-11,66,51,38,42,31,16,94,53,18,30.01,29.83,21,6,45,0.08
2014-4-12,63,46,31,44,31,24,100,66,23,30.19,29.97,19,4,45,0.00
2014-4-13,46,40,35,39,34,26,92,80,46,30.25,29.99,13,5,32,0.17
2014-4-14,75,56,34,56,46,34,100,72,39,29.98,29.75,25,10,52,0.00
2014-4-15,62,56,32,58,51,31,94,84,73,29.76,29.42,25,12,53,0.44
2014-4-16,36,28,20,32,21,15,100,75,46,30.61,29.72,15,6,39,0.31
2014-4-17,47,31,17,22,16,9,88,57,23,30.80,30.61,12,4,30,0.00
2014-4-18,46,35,24,28,23,20,87,64,38,30.64,30.21,12,2,28,0.00
2014-4-19,53,40,27,32,26,20,92,60,30,30.41,30.12,20,5,44,0.00
2014-4-20,62,43,24,27,18,5,88,47,11,30.50,30.26,11,2,24,0.00
2014-4-21,74,54,33,27,22,15,77,36,11,30.26,29.76,19,7,37,0.00
2014-4-22,71,58,44,52,35,15,100,48,19,29.76,29.40,18,4,35,0.10
2014-4-23,51,44,40,50,38,28,100,80,60,29.63,29.39,21,7,55,0.04
2014-4-24,52,42,33,27,21,16,60,43,28,29.92,29.62,23,13,52,0.00
2014-4-25,64,47,29,33,20,6,78,40,11,29.99,29.75,13,2,30,0.00
2014-4-26,51,41,38,40,35,23,100,83,33,29.82,29.71,10,3,24,0.48
2014-4-27,47,40,34,40,36,33,100,86,65,30.08,29.82,10,2,28,0.13
2014-4-28,56,46,34,40,34,31,92,67,43,30.19,30.01,14,4,34,0.00
2014-4-29,50,42,36,38,33,29,93,71,45,30.49,30.19,20,9,40,0.05
2014-4-30,40,37,36,37,35,33,100,91,84,30.49,30.16,22,9,44,0.46
2014-5-1,69,49,37,55,45,37,100,88,50,30.15,29.61,13,3,31,0.21
2014-5-2,59,50,39,41,37,34,90,61,41,29.77,29.63,22,7,44,0.00
2014-5-3,60,50,38,46,40,35,96,68,41,29.81,29.67,13,3,33,0.04
2014-5-4,54,47,43,46,39,34,100,76,50,29.67,29.48,24,10,48,0.08
2014-5-8,71,53,32,38,27,14,87,46,11,30.17,30.05,8,1,22,0.00
2014-5-9,54,48,46,48,39,28,100,73,42,30.21,30.03,13,5,27,0.05
2014-5-10,78,58,47,60,49,42,100,77,31,30.02,29.68,18,4,42,0.03
2014-5-11,74,63,52,43,32,22,66,34,15,29.99,29.74,18,7,40,0.00
2014-5-12,83,65,46,42,36,30,75,40,15,30.06,29.95,19,5,36,0.00
2014-5-13,62,50,48,45,42,38,88,73,46,30.28,30.04,14,5,36,0.02
2014-5-14,77,59,45,48,40,34,80,54,24,30.27,30.15,12,4,28,0.00
2014-5-15,75,62,52,60,54,47,90,77,58,30.22,30.10,11,2,25,0.00
2014-5-16,66,62,60,64,61,58,100,95,75,30.11,29.88,15,5,35,0.24
2014-5-17,67,59,45,63,48,30,100,72,27,30.05,29.74,18,7,35,1.30
2014-5-18,66,53,39,39,32,20,92,51,18,30.13,30.02,14,3,35,0.00
2014-5-19,62,52,41,41,33,27,73,51,29,30.08,29.99,13,4,39,0.00
2014-5-20,73,58,41,42,36,28,89,51,20,30.03,29.92,15,4,37,0.00
2014-5-21,76,58,39,50,40,26,99,59,17,29.97,29.85,8,2,25,0.00
2014-5-22,60,54,50,55,51,47,100,88,71,29.88,29.81,11,2,30,0.71
2014-5-23,55,52,49,54,52,49,100,98,90,29.96,29.82,10,3,28,0.34
2014-5-24,66,54,48,55,50,46,100,88,51,30.03,29.94,9,2,34,0.28
2014-5-25,76,60,47,56,49,40,100,74,27,30.05,29.93,17,2,33,0.00
2014-5-26,73,64,54,55,51,45,88,65,43,29.94,29.75,18,6,42,0.02
2014-5-27,71,55,44,59,51,42,100,89,60,29.93,29.78,19,5,42,0.31
2014-5-28,51,47,43,47,45,42,100,94,79,30.21,29.91,15,3,36,0.02
2014-5-29,68,53,40,49,40,27,100,68,24,30.24,30.08,6,1,25,0.00
2014-5-30,70,55,46,55,47,40,100,76,34,30.08,29.97,8,1,29,0.18
2014-5-31,66,53,44,53,48,44,100,86,51,30.29,30.04,6,1,26,0.02
2014-6-1,76,58,40,55,41,23,100,65,14,30.33,30.17,8,2,25,0.00
2014-6-2,84,67,49,57,46,40,85,51,21,30.17,29.93,15,4,31,0.00
2014-6-3,81,67,53,60,54,49,100,68,34,29.96,29.81,15,3,37,0.07
2014-6-4,69,60,55,59,54,49,91,80,67,29.84,29.71,8,2,24,0.00
2014-6-5,66,59,55,57,55,53,100,88,66,29.74,29.64,6,0,18,0.56
2014-6-6,70,60,52,57,53,49,100,80,51,29.88,29.69,11,4,35,0.03
2014-6-7,81,64,50,56,51,47,100,68,30,29.93,29.86,10,2,30,0.00
2014-6-8,84,66,48,62,51,35,100,67,20,29.94,29.83,6,0,21,0.00
2014-6-9,80,68,60,64,56,49,81,65,37,29.94,29.83,15,4,30,0.01
2014-6-10,76,66,59,63,57,52,91,75,55,30.07,29.89,8,1,29,0.02
2014-6-11,67,58,50,55,52,46,100,80,49,30.16,30.07,7,1,25,0.11
2014-6-12,59,56,53,59,55,51,100,96,89,30.14,30.03,8,2,29,0.26
2014-6-13,59,57,56,59,57,56,100,100,100,30.03,29.79,12,3,34,0.51
2014-6-14,71,60,52,60,55,49,100,86,50,29.92,29.76,9,1,25,0.16
2014-6-15,74,61,51,55,50,44,90,68,44,30.08,29.90,12,3,35,0.00
2014-6-16,80,62,46,58,47,31,100,65,20,30.13,29.98,7,0,21,0.00
2014-6-17,86,71,57,63,56,46,90,65,25,30.01,29.73,9,2,25,0.00
2014-6-18,78,70,64,66,61,53,100,75,45,29.92,29.62,19,6,42,0.50
2014-6-19,76,67,54,59,46,27,89,54,18,29.97,29.89,11,2,36,0.00
2014-6-20,68,58,46,47,41,32,88,57,27,29.97,29.89,12,3,35,0.00
2014-6-21,70,55,43,46,42,38,99,68,33,29.96,29.88,8,2,27,0.00
2014-6-22,74,60,44,57,47,40,99,67,32,30.00,29.92,7,1,21,0.00
2014-6-23,78,64,47,58,52,47,100,69,37,30.09,30.00,7,0,22,0.00
2014-6-24,75,68,61,59,56,54,81,67,52,30.07,29.91,15,5,43,0.00
2014-6-25,79,69,64,70,63,54,100,83,61,29.90,29.81,16,3,40,1.93
2014-6-26,76,68,60,68,64,59,100,90,65,29.99,29.75,8,1,22,0.19
2014-6-27,79,65,57,62,58,50,100,80,40,30.17,29.99,5,0,12,0.00
2014-6-28,82,67,52,61,52,39,100,66,22,30.25,30.17,3,0,13,0.00
2014-6-29,83,70,55,60,55,47,91,63,29,30.21,30.02,14,2,29,0.00
2014-6-30,82,74,63,65,60,56,80,64,45,30.02,29.85,14,6,30,0.00
2014-7-1,86,77,68,68,64,61,82,66,47,29.86,29.70,17,7,36,0.00
2014-7-2,89,74,68,72,67,62,100,82,42,29.88,29.74,16,5,34,0.52
2014-7-3,84,72,64,72,68,64,100,87,58,29.95,29.82,13,1,38,0.61
2014-7-4,67,64,58,67,64,55,100,99,92,29.97,29.86,11,2,27,0.37
2014-7-5,78,65,55,55,46,35,96,54,29,29.98,29.81,16,6,51,0.04
2014-7-6,81,67,53,56,49,39,85,57,24,29.96,29.81,20,5,45,0.00
2014-7-7,80,70,60,69,61,54,100,75,49,29.81,29.63,17,4,35,0.35
2014-7-8,82,74,66,69,66,64,100,78,60,29.73,29.55,14,6,36,0.00
2014-7-9,80,70,62,67,61,55,100,74,44,29.89,29.56,18,6,46,0.16
2014-7-10,77,65,55,62,55,44,100,74,31,30.14,29.89,12,2,28,0.01
2014-7-11,75,63,50,59,53,47,100,74,42,30.22,30.13,6,0,14,0.00
2014-7-12,84,69,51,62,56,51,100,68,40,30.19,30.03,10,1,24,0.00
2014-7-13,79,72,65,68,63,57,92,76,63,30.03,29.79,19,6,37,0.16
2014-7-14,83,74,66,69,66,61,100,78,49,29.86,29.78,13,3,39,0.00
2014-7-15,81,73,68,70,66,61,100,78,59,29.80,29.69,12,2,34,0.28
2014-7-16,75,68,61,69,64,56,100,88,59,29.84,29.70,6,0,16,0.62
2014-7-17,78,64,54,57,54,48,100,74,38,30.05,29.84,11,2,25,0.00
2014-7-18,78,63,50,59,52,45,100,74,31,30.21,30.05,7,1,22,0.00
2014-7-19,75,64,51,62,56,51,100,78,46,30.26,30.17,3,0,14,0.00
2014-7-20,77,65,57,62,57,49,100,78,38,30.19,30.10,5,0,19,0.01
2014-7-21,80,66,53,62,57,53,100,75,44,30.18,30.09,1,0,12,0.00
2014-7-22,86,72,60,67,63,58,100,74,42,30.11,29.91,10,2,29,0.00
2014-7-23,87,75,68,71,67,65,100,77,51,29.91,29.67,16,5,33,1.24
2014-7-24,74,66,53,68,58,48,100,78,45,29.90,29.73,7,1,27,0.35
2014-7-25,77,63,48,61,53,48,100,75,41,29.97,29.90,11,2,26,0.00
2014-7-26,78,66,56,60,55,48,100,72,38,29.93,29.82,15,2,32,0.00
2014-7-27,75,66,57,68,62,55,100,89,71,29.85,29.61,10,2,31,0.70
2014-7-28,76,66,60,70,65,59,100,95,66,29.64,29.40,8,1,27,0.56
2014-7-29,71,62,54,60,54,46,100,77,44,29.92,29.53,8,2,28,0.01
2014-7-30,74,61,51,58,54,47,100,81,42,30.00,29.92,3,0,16,0.00
2014-7-31,71,61,51,62,56,51,100,86,60,30.12,30.00,11,1,33,0.02
2014-8-1,80,68,54,66,60,54,100,78,45,30.18,30.11,7,1,20,0.00
2014-8-2,75,68,61,65,59,53,100,75,47,30.17,30.08,10,1,21,0.00
2014-8-3,78,66,54,63,59,54,100,80,53,30.10,30.00,4,0,13,0.00
2014-8-4,78,68,59,64,61,57,100,82,50,30.00,29.96,8,1,20,0.00
2014-8-5,79,68,59,67,61,57,100,81,49,30.01,29.86,6,1,26,0.04
2014-8-6,76,66,54,64,56,46,100,74,38,29.86,29.78,7,1,26,0.06
2014-8-7,69,58,51,60,53,50,100,87,54,29.94,29.84,7,1,24,0.73
2014-8-8,76,62,50,59,54,48,100,79,38,30.04,29.93,7,1,26,0.00
2014-8-9,79,64,51,61,54,43,100,73,30,30.09,30.00,7,1,25,0.00
2014-8-10,82,65,52,64,56,48,100,76,35,30.13,30.06,5,0,19,0.00
2014-8-11,83,67,55,65,58,53,100,77,40,30.12,30.04,4,0,19,0.00
2014-8-12,76,68,57,62,58,54,100,73,49,30.07,29.96,10,2,27,0.00
2014-8-13,66,62,59,63,61,59,100,96,82,29.96,29.63,12,4,38,2.23
2014-8-14,70,59,49,59,51,43,100,78,41,29.85,29.64,16,5,40,0.00
2014-8-15,64,56,48,52,50,46,100,81,56,29.87,29.81,12,2,31,0.00
2014-8-16,70,60,52,55,50,46,91,71,43,29.91,29.85,15,5,31,0.02
2014-8-17,68,61,54,56,52,50,94,74,53,29.85,29.76,10,3,26,0.00
2014-8-18,69,60,49,52,47,41,90,67,38,29.87,29.78,10,2,32,0.00
2014-8-19,77,58,46,56,49,43,100,76,34,29.94,29.85,6,1,17,0.00
2014-8-20,79,63,49,62,54,49,100,76,41,30.01,29.93,4,1,17,0.00
2014-8-21,66,61,56,57,54,49,100,79,67,30.08,30.00,3,0,24,0.23
2014-8-22,63,59,55,62,58,55,100,97,87,30.10,30.06,3,0,18,0.91
2014-8-23,72,62,54,59,56,50,100,82,46,30.12,30.08,2,0,13,0.00
2014-8-24,81,63,51,62,55,51,100,79,37,30.14,30.08,2,0,11,0.00
2014-8-25,84,66,54,65,57,47,100,77,31,30.16,30.08,5,0,17,0.00
2014-8-26,82,67,54,66,58,54,100,78,42,30.14,29.96,10,1,25,0.00
2014-8-27,84,73,65,68,62,58,86,70,49,29.96,29.81,16,5,41,0.00
2014-8-28,71,64,55,60,51,43,100,68,37,29.99,29.80,11,2,32,0.00
2014-8-29,72,60,48,58,51,46,100,75,44,30.20,29.99,5,0,18,0.00
2014-8-30,74,63,51,57,53,50,100,71,48,30.23,30.05,16,5,36,0.00
2014-8-31,78,70,63,72,64,57,100,84,65,30.05,29.89,19,6,37,0.87
2014-9-1,84,71,63,69,65,59,100,84,44,29.95,29.88,9,2,21,0.01
2014-9-2,83,71,60,70,66,60,100,85,60,29.90,29.63,13,2,32,0.14
2014-9-3,77,67,59,68,59,49,100,79,38,30.05,29.66,9,2,26,0.08
2014-9-4,80,65,52,64,56,47,100,77,37,30.17,30.05,8,1,28,0.00
2014-9-5,83,73,60,68,63,58,100,74,52,30.11,29.89,14,5,34,0.00
2014-9-6,82,71,61,68,65,60,100,82,52,29.89,29.70,17,6,47,0.10
2014-9-7,73,61,50,61,51,40,100,74,31,30.20,29.88,7,1,27,0.00
2014-9-8,71,58,46,56,48,44,100,75,41,30.35,30.21,5,1,18,0.00
2014-9-9,68,56,44,53,47,44,100,76,46,30.36,30.18,6,1,21,0.00
2014-9-10,65,58,52,55,52,49,100,83,66,30.18,29.99,5,1,17,0.00
2014-9-11,69,62,52,64,58,51,100,87,68,29.99,29.70,18,5,40,0.01
2014-9-12,60,53,42,51,42,39,87,68,50,30.26,29.88,7,2,30,0.00
2014-9-13,53,48,38,53,45,38,100,90,69,30.27,30.09,8,2,28,0.21
2014-9-14,58,48,38,50,41,37,100,79,46,30.24,30.09,7,2,27,0.01